| time (UTC) | temp F | wind direction | speed MPH | gust MPH | rain 1hr in | rain 24hr in | rain mn in | humidity % | barometer mb |
| 20260506003249 | 72 | 236 | 5.0 | 6.0 | 0.00 | 0.00 | 0.00 | 51 | 1003.3 |
| 20260506002745 | 72 | 201 | 2.0 | 3.0 | 0.00 | 0.00 | 0.00 | 52 | 1003.6 |
| 20260506002241 | 72 | 168 | 5.0 | 8.0 | 0.00 | 0.00 | 0.00 | 53 | 1003.5 |
| 20260506001737 | 72 | 184 | 1.0 | 1.0 | 0.00 | 0.00 | 0.00 | 54 | 1003.4 |
| 20260506001235 | 72 | 202 | 4.0 | 6.0 | 0.00 | 0.00 | 0.00 | 53 | 1003.3 |
| 20260506000731 | 72 | 193 | 0.0 | 0.0 | 0.00 | 0.00 | 0.00 | 54 | 1003.1 |
| 20260506000229 | 73 | 235 | 2.0 | 2.0 | 0.00 | 0.00 | 0.00 | 53 | 1003.1 |
| 20260505235726 | 73 | 128 | 1.0 | 2.0 | 0.00 | 0.00 | 0.00 | 54 | 1003.0 |
| 20260505235224 | 73 | 209 | 2.0 | 2.0 | 0.00 | 0.00 | 0.00 | 53 | 1002.7 |
| 20260505234720 | 74 | 193 | 1.0 | 1.0 | 0.00 | 0.00 | 0.00 | 53 | 1002.6 |
| 20260505234218 | 74 | 205 | 0.0 | 1.0 | 0.00 | 0.00 | 0.00 | 52 | 1002.6 |
| 20260505233714 | 74 | 185 | 2.0 | 2.0 | 0.00 | 0.00 | 0.00 | 52 | 1002.5 |
| 20260505233212 | 74 | 209 | 0.0 | 1.0 | 0.00 | 0.00 | 0.00 | 52 | 1002.2 |
| 20260505232709 | 74 | 162 | 4.0 | 6.0 | 0.00 | 0.00 | 0.00 | 52 | 1002.4 |
| 20260505232206 | 75 | 212 | 2.0 | 3.0 | 0.00 | 0.00 | 0.00 | 51 | 1002.4 |
| 20260505231703 | 75 | 211 | 2.0 | 3.0 | 0.00 | 0.00 | 0.00 | 51 | 1002.6 |
| 20260505231202 | 76 | 180 | 1.0 | 2.0 | 0.00 | 0.00 | 0.00 | 48 | 1002.3 |
| 20260505230700 | 76 | 211 | 7.0 | 15.0 | 0.00 | 0.00 | 0.00 | 46 | 1001.8 |
| 20260505230156 | 77 | 193 | 2.0 | 3.0 | 0.00 | 0.00 | 0.00 | 47 | 1002.2 |
| 20260505225652 | 77 | 212 | 4.0 | 7.0 | 0.00 | 0.00 | 0.00 | 47 | 1002.2 |
| 20260505225149 | 77 | 247 | 7.0 | 9.0 | 0.00 | 0.00 | 0.00 | 44 | 1002.1 |
| 20260505224645 | 78 | 192 | 2.0 | 3.0 | 0.00 | 0.00 | 0.00 | 46 | 1001.9 |
| 20260505224143 | 77 | 196 | 3.0 | 3.0 | 0.00 | 0.00 | 0.00 | 47 | 1001.9 |
| 20260505223640 | 78 | 180 | 4.0 | 6.0 | 0.00 | 0.00 | 0.00 | 47 | 1001.6 |
| 20260505223136 | 78 | 128 | 2.0 | 2.0 | 0.00 | 0.00 | 0.00 | 47 | 1001.8 |
| 20260505222632 | 78 | 206 | 1.0 | 1.0 | 0.00 | 0.00 | 0.00 | 46 | 1001.7 |
| 20260505222128 | 78 | 105 | 3.0 | 6.0 | 0.00 | 0.00 | 0.00 | 45 | 1001.5 |
| 20260505221626 | 79 | 235 | 6.0 | 7.0 | 0.00 | 0.00 | 0.00 | 45 | 1001.3 |
| 20260505221122 | 79 | 127 | 4.0 | 6.0 | 0.00 | 0.00 | 0.00 | 43 | 1001.3 |
| 20260505220620 | 80 | 229 | 5.0 | 7.0 | 0.00 | 0.00 | 0.00 | 43 | 1001.3 |
| 20260505220117 | 80 | 213 | 3.0 | 3.0 | 0.00 | 0.00 | 0.00 | 42 | 1001.1 |
| 20260505215615 | 81 | 205 | 3.0 | 5.0 | 0.00 | 0.00 | 0.00 | 40 | 1000.9 |
| 20260505215113 | 81 | 289 | 3.0 | 3.0 | 0.00 | 0.00 | 0.00 | 40 | 1000.9 |
| 20260505214611 | 80 | 182 | 3.0 | 3.0 | 0.00 | 0.00 | 0.00 | 40 | 1000.7 |
| 20260505214108 | 81 | 236 | 1.0 | 2.0 | 0.00 | 0.00 | 0.00 | 41 | 1001.0 |
| 20260505213605 | 81 | 154 | 1.0 | 2.0 | 0.00 | 0.00 | 0.00 | 42 | 1000.7 |
| 20260505213102 | 82 | 235 | 3.0 | 9.0 | 0.00 | 0.00 | 0.00 | 40 | 1000.7 |
| 20260505212558 | 82 | 209 | 1.0 | 1.0 | 0.00 | 0.00 | 0.00 | 41 | 1000.8 |
| 20260505212056 | 82 | 217 | 0.0 | 1.0 | 0.00 | 0.00 | 0.00 | 40 | 1000.6 |
| 20260505211552 | 83 | 235 | 4.0 | 5.0 | 0.00 | 0.00 | 0.00 | 39 | 1000.7 |
| 20260505211049 | 83 | 182 | 2.0 | 3.0 | 0.00 | 0.00 | 0.00 | 37 | 1000.6 |
| 20260505210545 | 83 | 232 | 3.0 | 5.0 | 0.00 | 0.00 | 0.00 | 37 | 1000.7 |
| 20260505210043 | 82 | 207 | 1.0 | 3.0 | 0.00 | 0.00 | 0.00 | 38 | 1000.8 |
| 20260505205541 | 83 | 244 | 3.0 | 3.0 | 0.00 | 0.00 | 0.00 | 38 | 1000.4 |
| 20260505205038 | 83 | 246 | 7.0 | 10.0 | 0.00 | 0.00 | 0.00 | 37 | 1000.4 |
| 20260505204535 | 83 | 228 | 2.0 | 5.0 | 0.00 | 0.00 | 0.00 | 38 | 1000.2 |
| 20260505204032 | 82 | 222 | 2.0 | 2.0 | 0.00 | 0.00 | 0.00 | 38 | 1000.7 |
| 20260505203529 | 83 | 189 | 3.0 | 7.0 | 0.00 | 0.00 | 0.00 | 38 | 1000.6 |
| 20260505203026 | 83 | 241 | 7.0 | 8.0 | 0.00 | 0.00 | 0.00 | 37 | 1000.6 |
| 20260505202522 | 83 | 217 | 1.0 | 1.0 | 0.00 | 0.00 | 0.00 | 38 | 1000.9 |
| 20260505202018 | 83 | 232 | 5.0 | 10.0 | 0.00 | 0.00 | 0.00 | 37 | 1000.8 |
| 20260505201515 | 83 | 168 | 4.0 | 7.0 | 0.00 | 0.00 | 0.00 | 38 | 1000.7 |
| 20260505201013 | 83 | 285 | 7.0 | 10.0 | 0.00 | 0.00 | 0.00 | 38 | 1000.9 |
| 20260505200510 | 84 | 217 | 4.0 | 5.0 | 0.00 | 0.00 | 0.00 | 38 | 1000.8 |
| 20260505200007 | 85 | 147 | 2.0 | 3.0 | 0.00 | 0.00 | 0.00 | 39 | 1001.1 |
| 20260505195503 | 85 | 122 | 1.0 | 2.0 | 0.00 | 0.00 | 0.00 | 39 | 1000.7 |
| 20260505195000 | 84 | 255 | 8.0 | 10.0 | 0.00 | 0.00 | 0.00 | 39 | 1000.9 |
| 20260505194458 | 83 | 132 | 4.0 | 6.0 | 0.00 | 0.00 | 0.00 | 39 | 1000.8 |
| 20260505193958 | 84 | 225 | 3.0 | 5.0 | 0.00 | 0.00 | 0.00 | 40 | 1000.8 |
| 20260505193456 | 84 | 196 | 1.0 | 2.0 | 0.00 | 0.00 | 0.00 | 41 | 1001.0 |
| 20260505192953 | 83 | 115 | 5.0 | 7.0 | 0.00 | 0.00 | 0.00 | 40 | 1000.9 |
| 20260505192451 | 82 | 212 | 2.0 | 2.0 | 0.00 | 0.00 | 0.00 | 41 | 1001.0 |
| 20260505191948 | 84 | 178 | 2.0 | 2.0 | 0.00 | 0.00 | 0.00 | 40 | 1001.1 |
| 20260505191447 | 84 | 118 | 3.0 | 5.0 | 0.00 | 0.00 | 0.00 | 40 | 1001.3 |
| 20260505190943 | 83 | 239 | 3.0 | 5.0 | 0.00 | 0.00 | 0.00 | 41 | 1001.3 |
| 20260505190438 | 84 | 298 | 3.0 | 3.0 | 0.00 | 0.00 | 0.00 | 40 | 1001.5 |
| 20260505185934 | 84 | 227 | 2.0 | 2.0 | 0.00 | 0.00 | 0.00 | 39 | 1001.6 |
| 20260505185432 | 85 | 158 | 3.0 | 5.0 | 0.00 | 0.00 | 0.00 | 38 | 1001.6 |
| 20260505184928 | 83 | 240 | 3.0 | 5.0 | 0.00 | 0.00 | 0.00 | 37 | 1001.8 |
| 20260505184425 | 84 | 212 | 5.0 | 8.0 | 0.00 | 0.00 | 0.00 | 36 | 1001.8 |
| 20260505183922 | 84 | 225 | 8.0 | 13.0 | 0.00 | 0.00 | 0.00 | 37 | 1001.6 |
| 20260505183419 | 85 | 161 | 3.0 | 3.0 | 0.00 | 0.00 | 0.00 | 38 | 1001.7 |
| 20260505182915 | 84 | 225 | 7.0 | 10.0 | 0.00 | 0.00 | 0.00 | 38 | 1002.0 |
| 20260505182412 | 84 | 165 | 4.0 | 5.0 | 0.00 | 0.00 | 0.00 | 39 | 1001.9 |
| 20260505181908 | 84 | 263 | 4.0 | 6.0 | 0.00 | 0.00 | 0.00 | 39 | 1002.0 |
| 20260505181406 | 84 | 195 | 6.0 | 9.0 | 0.00 | 0.00 | 0.00 | 38 | 1002.2 |
| 20260505180903 | 83 | 189 | 4.0 | 6.0 | 0.00 | 0.00 | 0.00 | 40 | 1002.6 |
| 20260505180359 | 83 | 249 | 7.0 | 10.0 | 0.00 | 0.00 | 0.00 | 40 | 1002.6 |
| 20260505175856 | 84 | 77 | 1.0 | 2.0 | 0.00 | 0.00 | 0.00 | 41 | 1002.5 |
| 20260505175352 | 84 | 261 | 6.0 | 9.0 | 0.00 | 0.00 | 0.00 | 39 | 1002.7 |
| 20260505174848 | 82 | 229 | 1.0 | 2.0 | 0.00 | 0.00 | 0.00 | 41 | 1002.3 |
| 20260505174346 | 83 | 224 | 3.0 | 5.0 | 0.00 | 0.00 | 0.00 | 41 | 1002.3 |
| 20260505173842 | 82 | 192 | 4.0 | 7.0 | 0.00 | 0.00 | 0.00 | 41 | 1002.6 |
| 20260505173339 | 83 | 202 | 4.0 | 6.0 | 0.00 | 0.00 | 0.00 | 40 | 1002.8 |
| 20260505172836 | 84 | 302 | 4.0 | 5.0 | 0.00 | 0.00 | 0.00 | 40 | 1002.8 |
| 20260505172334 | 82 | 191 | 2.0 | 2.0 | 0.00 | 0.00 | 0.00 | 41 | 1002.9 |
| 20260505171833 | 82 | 205 | 2.0 | 2.0 | 0.00 | 0.00 | 0.00 | 41 | 1003.0 |
| 20260505171330 | 81 | 218 | 3.0 | 3.0 | 0.00 | 0.00 | 0.00 | 43 | 1003.3 |
| 20260505170827 | 82 | 231 | 5.0 | 6.0 | 0.00 | 0.00 | 0.00 | 42 | 1003.3 |
| 20260505170323 | 81 | 245 | 5.0 | 7.0 | 0.00 | 0.00 | 0.00 | 43 | 1003.6 |
| 20260505165819 | 82 | 168 | 4.0 | 6.0 | 0.00 | 0.00 | 0.00 | 43 | 1003.3 |
| 20260505165315 | 81 | 192 | 3.0 | 3.0 | 0.00 | 0.00 | 0.00 | 43 | 1003.4 |
| 20260505164810 | 81 | 220 | 4.0 | 7.0 | 0.00 | 0.00 | 0.00 | 42 | 1003.6 |
| 20260505164308 | 80 | 176 | 1.0 | 1.0 | 0.00 | 0.00 | 0.00 | 46 | 1003.6 |
| 20260505163806 | 80 | 203 | 9.0 | 11.0 | 0.00 | 0.00 | 0.00 | 45 | 1003.8 |
| 20260505163304 | 79 | 217 | 4.0 | 5.0 | 0.00 | 0.00 | 0.00 | 44 | 1003.9 |
| 20260505162802 | 79 | 247 | 6.0 | 7.0 | 0.00 | 0.00 | 0.00 | 47 | 1003.8 |
| 20260505162258 | 79 | 206 | 2.0 | 3.0 | 0.00 | 0.00 | 0.00 | 48 | 1004.0 |
| 20260505161755 | 78 | 204 | 3.0 | 3.0 | 0.00 | 0.00 | 0.00 | 47 | 1004.2 |
| 20260505161253 | 78 | 351 | 3.0 | 5.0 | 0.00 | 0.00 | 0.00 | 47 | 1004.3 |
| 20260505160750 | 78 | 232 | 3.0 | 3.0 | 0.00 | 0.00 | 0.00 | 48 | 1004.4 |
| 20260505160248 | 78 | 207 | 2.0 | 2.0 | 0.00 | 0.00 | 0.00 | 50 | 1004.5 |
| 20260505153227 | 75 | 208 | 2.0 | 2.0 | 0.00 | 0.00 | 0.00 | 52 | 1004.7 |
| 20260505152724 | 75 | 309 | 3.0 | 3.0 | 0.00 | 0.00 | 0.00 | 51 | 1004.9 |
| 20260505152220 | 75 | 241 | 2.0 | 3.0 | 0.00 | 0.00 | 0.00 | 51 | 1004.9 |
| 20260505151714 | 74 | 234 | 4.0 | 6.0 | 0.00 | 0.00 | 0.00 | 53 | 1005.1 |
| 20260505151212 | 73 | 223 | 5.0 | 8.0 | 0.00 | 0.00 | 0.00 | 53 | 1005.4 |
| 20260505150708 | 72 | 199 | 1.0 | 2.0 | 0.00 | 0.00 | 0.00 | 55 | 1005.2 |
| 20260505150206 | 73 | 221 | 3.0 | 5.0 | 0.00 | 0.00 | 0.00 | 55 | 1005.1 |
| 20260505140639 | 67 | 207 | 1.0 | 2.0 | 0.00 | 0.00 | 0.00 | 62 | 1005.4 |
| 20260505140136 | 68 | 219 | 3.0 | 7.0 | 0.00 | 0.00 | 0.00 | 62 | 1005.5 |
| 20260505124549 | 62 | 205 | 0.0 | 1.0 | 0.00 | 0.00 | 0.00 | 69 | 1005.9 |
| 20260505124045 | 62 | 188 | 5.0 | 8.0 | 0.00 | 0.00 | 0.00 | 69 | 1005.4 |
| 20260505123542 | 62 | 279 | 3.0 | 6.0 | 0.00 | 0.00 | 0.00 | 68 | 1005.7 |
| 20260505123038 | 63 | 271 | 5.0 | 8.0 | 0.00 | 0.00 | 0.00 | 67 | 1005.6 |
| 20260505122535 | 63 | 208 | 2.0 | 2.0 | 0.00 | 0.00 | 0.00 | 67 | 1005.6 |
| 20260505122032 | 62 | 215 | 2.0 | 3.0 | 0.00 | 0.00 | 0.00 | 67 | 1005.8 |
| 20260505121529 | 63 | 224 | 1.0 | 3.0 | 0.00 | 0.00 | 0.00 | 67 | 1005.5 |
| 20260505121025 | 63 | 182 | 2.0 | 2.0 | 0.00 | 0.00 | 0.00 | 67 | 1005.7 |
| 20260505120522 | 62 | 189 | 2.0 | 2.0 | 0.00 | 0.00 | 0.00 | 68 | 1005.4 |
| 20260505120017 | 62 | 192 | 2.0 | 3.0 | 0.00 | 0.00 | 0.00 | 69 | 1005.3 |
| 20260505115512 | 61 | 217 | 4.0 | 6.0 | 0.00 | 0.00 | 0.00 | 69 | 1005.2 |
| 20260505115010 | 60 | 227 | 1.0 | 2.0 | 0.00 | 0.00 | 0.00 | 71 | 1005.3 |
| 20260505114507 | 60 | 216 | 2.0 | 2.0 | 0.00 | 0.00 | 0.00 | 71 | 1005.3 |
| 20260505114003 | 59 | 215 | 2.0 | 2.0 | 0.00 | 0.00 | 0.00 | 72 | 1005.4 |
| 20260505113500 | 59 | 197 | 3.0 | 3.0 | 0.00 | 0.00 | 0.00 | 72 | 1005.3 |
| 20260505112955 | 59 | 207 | 1.0 | 2.0 | 0.00 | 0.00 | 0.00 | 72 | 1005.6 |
| 20260505112453 | 59 | 218 | 6.0 | 10.0 | 0.00 | 0.00 | 0.00 | 72 | 1005.4 |
| 20260505111949 | 58 | 198 | 2.0 | 2.0 | 0.00 | 0.00 | 0.00 | 73 | 1005.4 |
| 20260505111443 | 58 | 216 | 3.0 | 3.0 | 0.00 | 0.00 | 0.00 | 74 | 1005.5 |
| 20260505110940 | 57 | 221 | 1.0 | 1.0 | 0.00 | 0.00 | 0.00 | 74 | 1005.3 |
| 20260505110437 | 57 | 227 | 2.0 | 2.0 | 0.00 | 0.00 | 0.00 | 75 | 1005.6 |
| 20260505101909 | 53 | 193 | 0.0 | 0.0 | 0.00 | 0.00 | 0.00 | 79 | 1005.6 |
| 20260505101409 | 53 | 211 | 0.0 | 0.0 | 0.00 | 0.00 | 0.00 | 79 | 1005.4 |
| 20260505100905 | 53 | 202 | 0.0 | 1.0 | 0.00 | 0.00 | 0.00 | 80 | 1005.6 |
| 20260505100401 | 52 | 224 | 2.0 | 2.0 | 0.00 | 0.00 | 0.00 | 81 | 1005.3 |
| 20260505095857 | 53 | 205 | 0.0 | 0.0 | 0.00 | 0.00 | 0.00 | 80 | 1005.5 |
| 20260505095355 | 53 | 216 | 0.0 | 0.0 | 0.00 | 0.00 | 0.00 | 79 | 1005.4 |
| 20260505094850 | 52 | 214 | 0.0 | 0.0 | 0.00 | 0.00 | 0.00 | 80 | 1005.3 |
| 20260505094348 | 53 | 211 | 0.0 | 0.0 | 0.00 | 0.00 | 0.00 | 79 | 1005.8 |
| 20260505093843 | 52 | 208 | 1.0 | 1.0 | 0.00 | 0.00 | 0.00 | 79 | 1005.5 |
| 20260505093341 | 52 | 197 | 0.0 | 0.0 | 0.00 | 0.00 | 0.00 | 79 | 1005.4 |
| 20260505092838 | 53 | 212 | 0.0 | 0.0 | 0.00 | 0.00 | 0.00 | 79 | 1005.2 |
| 20260505092336 | 52 | 189 | 1.0 | 1.0 | 0.00 | 0.00 | 0.00 | 79 | 1005.4 |
| 20260505091833 | 53 | 199 | 1.0 | 1.0 | 0.00 | 0.00 | 0.00 | 79 | 1005.6 |
| 20260505091331 | 52 | 187 | 2.0 | 2.0 | 0.00 | 0.00 | 0.00 | 79 | 1005.3 |
| 20260505090829 | 52 | 191 | 1.0 | 1.0 | 0.00 | 0.00 | 0.00 | 79 | 1005.5 |
| 20260505090327 | 52 | 201 | 2.0 | 2.0 | 0.00 | 0.00 | 0.00 | 80 | 1005.4 |
| 20260505085824 | 52 | 211 | 0.0 | 0.0 | 0.00 | 0.00 | 0.00 | 80 | 1005.4 |
| 20260505085322 | 52 | 211 | 0.0 | 1.0 | 0.00 | 0.00 | 0.00 | 80 | 1005.5 |
| 20260505084819 | 52 | 207 | 0.0 | 1.0 | 0.00 | 0.00 | 0.00 | 79 | 1005.6 |
| 20260505084318 | 52 | 206 | 1.0 | 1.0 | 0.00 | 0.00 | 0.00 | 79 | 1005.7 |
| 20260505083814 | 52 | 218 | 1.0 | 1.0 | 0.00 | 0.00 | 0.00 | 78 | 1005.6 |
| 20260505083311 | 53 | 208 | 0.0 | 0.0 | 0.00 | 0.00 | 0.00 | 78 | 1005.5 |
| 20260505082808 | 53 | 206 | 0.0 | 0.0 | 0.00 | 0.00 | 0.00 | 77 | 1005.8 |
| 20260505082305 | 53 | 202 | 0.0 | 0.0 | 0.00 | 0.00 | 0.00 | 77 | 1005.5 |
| 20260505081800 | 53 | 209 | 1.0 | 1.0 | 0.00 | 0.00 | 0.00 | 76 | 1005.4 |
| 20260505081258 | 53 | 201 | 0.0 | 0.0 | 0.00 | 0.00 | 0.00 | 76 | 1005.6 |
| 20260505080754 | 54 | 198 | 0.0 | 0.0 | 0.00 | 0.00 | 0.00 | 75 | 1005.7 |
| 20260505080250 | 53 | 215 | 0.0 | 0.0 | 0.00 | 0.00 | 0.00 | 75 | 1005.8 |
| 20260505075746 | 53 | 195 | 0.0 | 0.0 | 0.00 | 0.00 | 0.00 | 75 | 1005.9 |
| 20260505075243 | 53 | 208 | 1.0 | 2.0 | 0.00 | 0.00 | 0.00 | 76 | 1005.9 |
| 20260505074740 | 53 | 197 | 0.0 | 0.0 | 0.00 | 0.00 | 0.00 | 75 | 1005.8 |
| 20260505074238 | 54 | 209 | 0.0 | 0.0 | 0.00 | 0.00 | 0.00 | 75 | 1005.7 |
| 20260505073735 | 54 | 217 | 2.0 | 2.0 | 0.00 | 0.00 | 0.00 | 75 | 1005.7 |
| 20260505073233 | 54 | 208 | 0.0 | 1.0 | 0.00 | 0.00 | 0.00 | 75 | 1005.9 |
| 20260505072729 | 54 | 230 | 1.0 | 2.0 | 0.00 | 0.00 | 0.00 | 74 | 1005.8 |
| 20260505072225 | 54 | 248 | 0.0 | 2.0 | 0.00 | 0.00 | 0.00 | 75 | 1005.8 |
| 20260505071721 | 54 | 194 | 0.0 | 0.0 | 0.00 | 0.00 | 0.00 | 75 | 1005.8 |
| 20260505071218 | 53 | 190 | 1.0 | 1.0 | 0.00 | 0.00 | 0.00 | 75 | 1005.9 |
| 20260505070716 | 53 | 184 | 1.0 | 2.0 | 0.00 | 0.00 | 0.00 | 75 | 1005.8 |
| 20260505070212 | 54 | 205 | 1.0 | 1.0 | 0.00 | 0.00 | 0.00 | 75 | 1005.8 |
| 20260505065708 | 53 | 207 | 0.0 | 0.0 | 0.00 | 0.00 | 0.00 | 75 | 1005.8 |
| 20260505065205 | 54 | 202 | 0.0 | 0.0 | 0.00 | 0.00 | 0.00 | 74 | 1005.8 |
| 20260505064702 | 54 | 197 | 0.0 | 0.0 | 0.00 | 0.00 | 0.00 | 74 | 1005.9 |
| 20260505064200 | 54 | 198 | 0.0 | 0.0 | 0.00 | 0.00 | 0.00 | 74 | 1005.9 |
| 20260505063657 | 54 | 211 | 0.0 | 0.0 | 0.00 | 0.00 | 0.00 | 73 | 1005.9 |
| 20260505063153 | 54 | 191 | 1.0 | 1.0 | 0.00 | 0.00 | 0.00 | 72 | 1005.9 |
| 20260505062649 | 54 | 177 | 1.0 | 1.0 | 0.00 | 0.00 | 0.00 | 73 | 1006.0 |
| 20260505062147 | 54 | 207 | 0.0 | 0.0 | 0.00 | 0.00 | 0.00 | 72 | 1006.1 |
| 20260505061644 | 55 | 204 | 1.0 | 1.0 | 0.00 | 0.00 | 0.00 | 72 | 1005.8 |
| 20260505061142 | 55 | 195 | 0.0 | 0.0 | 0.00 | 0.00 | 0.00 | 71 | 1005.9 |
| 20260505060639 | 55 | 205 | 0.0 | 0.0 | 0.00 | 0.00 | 0.00 | 71 | 1005.9 |
| 20260505060136 | 55 | 205 | 0.0 | 0.0 | 0.00 | 0.00 | 0.00 | 71 | 1005.9 |
| 20260505055631 | 55 | 206 | 0.0 | 0.0 | 0.00 | 0.00 | 0.00 | 70 | 1006.0 |
| 20260505055128 | 55 | 209 | 1.0 | 1.0 | 0.00 | 0.00 | 0.00 | 71 | 1006.0 |
| 20260505054625 | 55 | 210 | 1.0 | 1.0 | 0.00 | 0.00 | 0.00 | 70 | 1006.1 |
| 20260505054123 | 55 | 263 | 2.0 | 2.0 | 0.00 | 0.00 | 0.00 | 70 | 1006.1 |
| 20260505053620 | 55 | 186 | 1.0 | 1.0 | 0.00 | 0.00 | 0.00 | 69 | 1006.2 |
| 20260505053116 | 56 | 182 | 1.0 | 1.0 | 0.00 | 0.00 | 0.00 | 69 | 1006.2 |
| 20260505052614 | 56 | 216 | 1.0 | 1.0 | 0.00 | 0.00 | 0.00 | 68 | 1006.1 |
| 20260505052111 | 56 | 193 | 1.0 | 2.0 | 0.00 | 0.00 | 0.00 | 68 | 1006.2 |
| 20260505051608 | 56 | 209 | 1.0 | 1.0 | 0.00 | 0.00 | 0.00 | 67 | 1006.2 |
| 20260505051106 | 56 | 195 | 2.0 | 2.0 | 0.00 | 0.00 | 0.00 | 67 | 1006.2 |
| 20260505050604 | 56 | 217 | 3.0 | 3.0 | 0.00 | 0.00 | 0.00 | 67 | 1006.2 |
| 20260505041531 | 58 | 204 | 2.0 | 3.0 | 0.00 | 0.00 | 0.00 | 62 | 1006.1 |
| 20260505041029 | 58 | 163 | 1.0 | 2.0 | 0.00 | 0.00 | 0.00 | 62 | 1006.4 |
| 20260505040526 | 58 | 192 | 2.0 | 2.0 | 0.00 | 0.00 | 0.00 | 62 | 1006.1 |
| 20260505040023 | 58 | 231 | 5.0 | 6.0 | 0.00 | 0.00 | 0.00 | 61 | 1005.9 |
| 20260505035519 | 58 | 224 | 2.0 | 3.0 | 0.00 | 0.00 | 0.00 | 61 | 1006.1 |
| 20260505035016 | 58 | 159 | 2.0 | 3.0 | 0.00 | 0.00 | 0.00 | 61 | 1006.1 |
| 20260505034513 | 59 | 228 | 1.0 | 2.0 | 0.00 | 0.00 | 0.00 | 60 | 1005.8 |
| 20260505034010 | 59 | 193 | 1.0 | 2.0 | 0.00 | 0.00 | 0.00 | 59 | 1005.9 |
| 20260505033507 | 59 | 216 | 5.0 | 6.0 | 0.00 | 0.00 | 0.00 | 59 | 1005.8 |
| 20260505033005 | 59 | 212 | 5.0 | 7.0 | 0.00 | 0.00 | 0.00 | 59 | 1005.8 |
| 20260505032502 | 59 | 211 | 0.0 | 0.0 | 0.00 | 0.00 | 0.00 | 59 | 1005.9 |
| 20260505031958 | 59 | 218 | 3.0 | 3.0 | 0.00 | 0.00 | 0.00 | 58 | 1005.6 |
| 20260505031455 | 60 | 186 | 2.0 | 2.0 | 0.00 | 0.00 | 0.00 | 58 | 1005.8 |
| 20260505030952 | 59 | 216 | 2.0 | 2.0 | 0.00 | 0.00 | 0.00 | 58 | 1005.7 |
| 20260505030448 | 60 | 197 | 1.0 | 2.0 | 0.00 | 0.00 | 0.00 | 57 | 1005.7 |
| 20260505025943 | 60 | 211 | 3.0 | 5.0 | 0.00 | 0.00 | 0.00 | 57 | 1005.6 |
| 20260505025441 | 60 | 209 | 0.0 | 0.0 | 0.00 | 0.00 | 0.00 | 56 | 1005.9 |
| 20260505024939 | 60 | 183 | 1.0 | 2.0 | 0.00 | 0.00 | 0.00 | 57 | 1005.9 |
| 20260505024437 | 61 | 201 | 1.0 | 2.0 | 0.00 | 0.00 | 0.00 | 56 | 1005.9 |
| 20260505023934 | 61 | 192 | 1.0 | 1.0 | 0.00 | 0.00 | 0.00 | 55 | 1005.8 |
| 20260505023431 | 61 | 201 | 2.0 | 2.0 | 0.00 | 0.00 | 0.00 | 55 | 1005.7 |
| 20260505022928 | 61 | 200 | 0.0 | 1.0 | 0.00 | 0.00 | 0.00 | 55 | 1005.7 |
| 20260505022426 | 61 | 215 | 3.0 | 3.0 | 0.00 | 0.00 | 0.00 | 54 | 1005.6 |
| 20260505021922 | 61 | 209 | 3.0 | 5.0 | 0.00 | 0.00 | 0.00 | 54 | 1005.7 |
| 20260505021419 | 61 | 179 | 1.0 | 2.0 | 0.00 | 0.00 | 0.00 | 54 | 1005.7 |
| 20260505020914 | 61 | 191 | 2.0 | 3.0 | 0.00 | 0.00 | 0.00 | 54 | 1005.8 |
| 20260505020410 | 62 | 222 | 1.0 | 1.0 | 0.00 | 0.00 | 0.00 | 53 | 1005.8 |
| 20260505015907 | 62 | 222 | 1.0 | 2.0 | 0.00 | 0.00 | 0.00 | 54 | 1005.6 |
| 20260505015404 | 62 | 194 | 1.0 | 2.0 | 0.00 | 0.00 | 0.00 | 53 | 1005.4 |
| 20260505014902 | 62 | 170 | 5.0 | 7.0 | 0.00 | 0.00 | 0.00 | 52 | 1005.5 |
| 20260505014358 | 62 | 229 | 2.0 | 3.0 | 0.00 | 0.00 | 0.00 | 53 | 1005.5 |
| 20260505013855 | 63 | 187 | 1.0 | 2.0 | 0.00 | 0.00 | 0.00 | 52 | 1005.6 |
| 20260505013352 | 63 | 218 | 5.0 | 8.0 | 0.00 | 0.00 | 0.00 | 52 | 1005.2 |
| 20260505012851 | 63 | 246 | 2.0 | 2.0 | 0.00 | 0.00 | 0.00 | 51 | 1005.0 |
| 20260505012348 | 63 | 209 | 1.0 | 1.0 | 0.00 | 0.00 | 0.00 | 51 | 1005.1 |
| 20260505011844 | 64 | 202 | 4.0 | 8.0 | 0.00 | 0.00 | 0.00 | 50 | 1004.9 |
| 20260505011341 | 64 | 243 | 5.0 | 8.0 | 0.00 | 0.00 | 0.00 | 50 | 1004.9 |
| 20260505010837 | 64 | 225 | 1.0 | 2.0 | 0.00 | 0.00 | 0.00 | 50 | 1005.0 |
| 20260505010333 | 64 | 209 | 2.0 | 5.0 | 0.00 | 0.00 | 0.00 | 50 | 1004.8 |
| 20260505005829 | 64 | 244 | 7.0 | 9.0 | 0.00 | 0.00 | 0.00 | 49 | 1004.7 |
| 20260505005326 | 65 | 213 | 6.0 | 8.0 | 0.00 | 0.00 | 0.00 | 48 | 1004.6 |
| 20260505004824 | 65 | 220 | 5.0 | 6.0 | 0.00 | 0.00 | 0.00 | 48 | 1004.6 |
| 20260505004320 | 65 | 221 | 2.0 | 2.0 | 0.00 | 0.00 | 0.00 | 47 | 1004.5 |
| 20260505003817 | 65 | 224 | 1.0 | 1.0 | 0.00 | 0.00 | 0.00 | 47 | 1004.3 |